Weather in Semushino

Russia / Kirov Oblast     58°26′49″N   50°48′10″E
temp.,
°C
wind,
m/s
gust,
m/s
humid.,
%
clouds,
%
prec.,
mm/h
press.,
hPa
HPBL,
m
7 march, sun
sun700:00−17w229993 0.1 101020
03:00−20wsw1210085 0.1 101020
06:00−20ssw1110093 0.0 100920
09:00−15ssw239294 0.1 1009225
12:00−11s248699 0.0 1007519
15:00−11s3587100 0.1 1005612
18:00−15sse2396100 0.0 100461
21:00−14se41094100 0.1 1002308
8 march, mon
mon800:00−13se4995100 0.3 999408
03:00−12se51094100 0.9 996499
06:00−12ese51093100 0.8 994486
09:00−11ese5992100 1.1 992493
12:00−9e4790100 0.3 992579
15:00−8ne3691100 0.6 993558
18:00−11n3695100 0.3 996240
21:00−13nnw259699 0.4 999133
9 march, tue
tue900:00−14n249798 0.0 100189
03:00−15n259694 0.1 1002140
06:00−16n2696100 0.2 1004236
09:00−15n3691100 0.3 1005407
12:00−13n3588100 0.0 1007510
15:00−13n4689100 0.1 1009542
18:00−17n3893100 0.1 1011425
21:00−21n399696 0.1 1014272
10 march, wed
wed1000:00−25n379658 0.0 1015185
03:00−29n359728 0.0 1016113
06:00−31n25970 0.0 101878
09:00−26n36910 0.0 1019269
12:00−19nnw35850 0.0 1018458
15:00−17wnw368211 0.0 1017623
18:00−21w379584 0.0 1017141
21:00−21w399782 0.0 1017217
11 march, thu
thu1100:00−21w3898100 0.0 1016232
03:00−21w489799 0.1 1015299
06:00−19w4997100 0.2 1014361
09:00−15w4892100 0.4 1014449
12:00−9wnw5886100 0.1 1014808
15:00−7nw5987100 0.2 1015907
18:00−9wnw31091100 0.1 1016529
21:00−12wnw379699 0.1 1019155